Laconia, NH

4:47 AM EST on November 18, 2019 (GMT -0500)
Laconia Municipal

Weather History for KLCI - September, 2019

Change the Weather History Date:

Saturday, September 28, 2019

  Actual Average Record
Temperature  
Mean Temperature 64 °F -  
Max Temperature 79 °F 66 °F 82 °F (2014)
Min Temperature 48 °F 45 °F 34 °F (1989)
Degree Days  
Heating Degree Days 2    
Growing Degree Days 14 (Base 50)    
Moisture  
Dew Point 57 °F    
Average Humidity 79    
Maximum Humidity 100    
Minimum Humidity 50    
Precipitation  
Precipitation 0.00 in - - ()
Sea Level Pressure  
Sea Level Pressure 30.05 in    
Wind  
Wind Speed 5 mph ()    
Max Wind Speed 15 mph    
Max Gust Speed 18 mph    
Visibility 10.0 miles    
Events      
Averages and records for this station are not official NWS values.
T = Trace of Precipitation, MM = Missing Value Source: Averaged Metar Reports

Daily Weather History Graph

Daily Weather History Graph

Search for Another Location

Airport or City:

Astronomy

Sep. 28, 2019 Rise Set
Actual Time 6:39 AM EDT 6:32 PM EDT
Civil Twilight 6:10 AM EDT 7:01 PM EDT
Nautical Twilight 5:37 AM EDT 7:34 PM EDT
Astronomical Twilight 5:03 AM EDT 8:08 PM EDT
Moon 6:09 AM EDT (9/28) 6:57 PM EDT (9/28)
Length of Visible Light 12h 50m
Length of Day
11h 53m
Waning Crescent, 0% of the Moon is Illuminated
Sep 28
Waning Crescent
Sep 28
New
Oct 5
First Quarter
Oct 13
Full
Oct 21
Last Quarter

Hourly Weather History & Observations

Time (EDT) Temp. Dew Point Humidity Pressure Visibility Wind Dir Wind Speed Gust Speed Precip Events Conditions
12:56 AM 51.1 °F 50.0 °F 96% 30.10 in 10.0 mi WNW 3.5 mph - N/A   Clear
1:56 AM 52.0 °F 51.1 °F 97% 30.10 in 10.0 mi West 3.5 mph - N/A   Clear
2:56 AM 50.0 °F 48.9 °F 96% 30.09 in 10.0 mi Calm Calm - N/A   Clear
3:56 AM 48.9 °F 48.9 °F 100% 30.08 in 10.0 mi SW 4.6 mph - N/A   Clear
4:56 AM 52.0 °F 51.1 °F 97% 30.09 in 10.0 mi West 4.6 mph - N/A   Clear
5:56 AM 51.1 °F 50.0 °F 96% 30.10 in 10.0 mi SW 4.6 mph - N/A   Clear
6:56 AM 52.0 °F 50.0 °F 93% 30.10 in 10.0 mi West 5.8 mph - N/A   Clear
7:56 AM 54.0 °F 52.0 °F 93% 30.10 in 10.0 mi WSW 5.8 mph - N/A   Clear
8:56 AM 57.9 °F 52.0 °F 81% 30.10 in 10.0 mi West 5.8 mph - N/A   Clear
9:56 AM 61.0 °F 54.0 °F 78% 30.08 in 10.0 mi West 5.8 mph - N/A   Clear
10:56 AM 64.9 °F 55.9 °F 73% 30.06 in 10.0 mi WSW 9.2 mph - N/A   Clear
11:56 AM 70.0 °F 57.9 °F 65% 30.04 in 10.0 mi SW 6.9 mph - N/A   Clear
12:56 PM 73.0 °F 60.1 °F 64% 30.02 in 10.0 mi SSW 6.9 mph - N/A   Clear
1:56 PM 77.0 °F 60.1 °F 56% 29.99 in 10.0 mi South 12.7 mph - N/A   Clear
2:56 PM 79.0 °F 59.0 °F 50% 29.96 in 10.0 mi SW 12.7 mph - N/A   Clear
3:56 PM 79.0 °F 60.1 °F 52% 29.97 in 10.0 mi SW 15.0 mph 18.4 mph N/A   Clear
4:56 PM 77.0 °F 60.1 °F 56% 29.98 in 10.0 mi SW 9.2 mph - N/A   Partly Cloudy
5:56 PM 75.0 °F 62.1 °F 64% 29.99 in 10.0 mi WSW 9.2 mph - N/A   Scattered Clouds
6:56 PM 73.0 °F 62.1 °F 68% 30.01 in 10.0 mi West 5.8 mph - N/A   Mostly Cloudy
7:56 PM 69.1 °F 63.0 °F 81% 30.02 in 10.0 mi Calm Calm - N/A   Clear
8:56 PM 68.0 °F 64.0 °F 87% 30.01 in 10.0 mi WSW 3.5 mph - 0.00 in   Overcast
9:56 PM 69.1 °F 63.0 °F 81% 30.03 in 10.0 mi WSW 4.6 mph - N/A   Mostly Cloudy
10:56 PM 69.1 °F 63.0 °F 81% 30.03 in 10.0 mi Calm Calm - N/A   Scattered Clouds
11:56 PM 66.9 °F 63.0 °F 87% 30.04 in 10.0 mi Calm Calm - N/A   Scattered Clouds